Twin Bridges, CA

10:12 AM PDT on July 24, 2016 (GMT -0700)
Lake Tahoe

Weather History for KTVL - March, 2012

Change the Weather History Date:

Monday, March 26, 2012

  Actual Average Record
Temperature  
Mean Temperature 33 °F 37 °F  
Max Temperature 38 °F 50 °F 68 °F (2015)
Min Temperature 28 °F 24 °F 1 °F (1995)
Degree Days  
Heating Degree Days 32 28  
Month to date heating degree days 760 777  
Since 1 July heating degree days 5422 6014  
Cooling Degree Days 0 0  
Month to date cooling degree days 0 0  
Year to date cooling degree days 0 0  
Moisture  
Dew Point 22 °F    
Average Humidity 60    
Maximum Humidity 72    
Minimum Humidity 47    
Precipitation  
Precipitation 0.03 in - 2.57 in (1940)
Month to date precipitation 3.33  
Year to date precipitation 8.26  
Sea Level Pressure  
Sea Level Pressure 29.89 in    
Wind  
Wind Speed 8 mph (South)    
Max Wind Speed 13 mph    
Max Gust Speed 16 mph    
Visibility 6 miles    
Events Fog , Snow    
T = Trace of Precipitation, MM = Missing Value Source: NWS Daily Summary

Daily Weather History Graph

Daily Weather History Graph

Search for Another Location

Airport or City:

Trip Planner

Search our weather history database for the weather conditions in past years. The results will help you decide how hot, cold, wet, or windy it might be!

Date:

Astronomy

Mar. 26, 2012 Rise Set
Actual Time 6:53 AM PDT 7:18 PM PDT
Civil Twilight 6:26 AM PDT 7:45 PM PDT
Nautical Twilight 5:55 AM PDT 8:16 PM PDT
Astronomical Twilight 5:23 AM PDT 8:48 PM PDT
Moon 8:48 AM PDT (3/26) 11:30 PM PDT (3/26)
Length of Visible Light 13h 18m
Length of Day
12h 25m
Waxing Crescent, 15% of the Moon is Illuminated
Mar 26
Waxing Crescent
Mar 30
First Quarter
Apr 6
Full
Apr 13
Last Quarter
Apr 21
New

Hourly Weather History & Observations

Time (PDT) Temp. Windchill Dew Point Humidity Pressure Visibility Wind Dir Wind Speed Gust Speed Precip Events Conditions
12:53 AM 30.9 °F 26.2 °F 23.0 °F 72% 29.71 in 10.0 mi SSW 4.6 mph - N/A   Overcast
1:53 AM 30.0 °F 24.1 °F 21.0 °F 69% 29.72 in 10.0 mi SSW 5.8 mph - N/A   Overcast
2:53 AM 30.0 °F 21.7 °F 21.0 °F 69% 29.73 in 10.0 mi South 9.2 mph - N/A   Overcast
3:16 AM 30.2 °F 22.6 °F 21.2 °F 69% 29.77 in 3.0 mi South 8.1 mph - N/A Snow Light Snow
3:18 AM 28.4 °F 20.4 °F 21.2 °F 74% 29.77 in 1.8 mi SSW 8.1 mph - 0.00 in Snow Light Snow
3:28 AM 28.4 °F 20.4 °F 24.8 °F 86% 29.77 in 0.8 mi SSW 8.1 mph - 0.00 in Snow Light Snow
3:37 AM 28.4 °F 20.4 °F 24.8 °F 86% 29.77 in 0.8 mi South 8.1 mph - 0.00 in Snow Light Snow
3:44 AM 28.4 °F 19.1 °F 24.8 °F 86% 29.78 in 0.5 mi South 10.4 mph - 0.01 in Fog , Snow Snow
3:53 AM 28.0 °F 20.0 °F 24.1 °F 85% 29.76 in 0.5 mi South 8.1 mph - 0.01 in Fog , Snow Snow
4:08 AM 28.4 °F 23.3 °F 24.8 °F 86% 29.79 in 1.0 mi SSW 4.6 mph - 0.01 in Snow Light Snow
4:13 AM 28.4 °F 19.7 °F 21.2 °F 74% 29.79 in 2.0 mi SSW 9.2 mph 16.1 mph 0.01 in Snow Light Snow
4:17 AM 28.4 °F 20.4 °F 21.2 °F 74% 29.79 in 5.0 mi SW 8.1 mph 16.1 mph 0.01 in Snow Light Snow
4:53 AM 28.9 °F 19.2 °F 19.9 °F 69% 29.78 in 7.0 mi South 11.5 mph - 0.01 in   Overcast
5:11 AM 28.4 °F 19.1 °F 19.4 °F 69% 29.80 in 2.0 mi SSW 10.4 mph 16.1 mph 0.00 in Snow Light Snow
5:17 AM 28.4 °F 22.2 °F 21.2 °F 74% 29.81 in 0.8 mi South 5.8 mph 16.1 mph 0.00 in Snow Light Snow
5:25 AM 28.4 °F 22.2 °F 21.2 °F 74% 29.81 in 2.0 mi SSW 5.8 mph - 0.00 in Snow Light Snow
5:29 AM 28.4 °F 19.7 °F 19.4 °F 69% 29.81 in 5.0 mi SSW 9.2 mph - 0.00 in Snow Light Snow
5:53 AM 28.4 °F 24.6 °F 19.4 °F 69% 29.82 in 4.0 mi Variable 3.5 mph - N/A Snow Light Snow
6:19 AM 28.4 °F 22.2 °F 17.6 °F 64% 29.83 in 5.0 mi Variable 5.8 mph - 0.00 in Snow Light Snow
6:24 AM 28.4 °F 19.7 °F 19.4 °F 69% 29.83 in 3.0 mi South 9.2 mph 17.3 mph 0.00 in Snow Light Snow
6:35 AM 28.4 °F 20.4 °F 17.6 °F 64% 29.84 in 9.0 mi South 8.1 mph - 0.00 in   Overcast
6:53 AM 28.9 °F 21.1 °F 18.0 °F 64% 29.84 in 9.0 mi South 8.1 mph - 0.00 in Snow Light Snow
7:53 AM 30.0 °F 22.4 °F 16.0 °F 56% 29.88 in 10.0 mi SSW 8.1 mph 18.4 mph 0.00 in   Overcast
8:53 AM 30.2 °F 20.2 °F 17.6 °F 60% 29.90 in 10.0 mi SSW 12.7 mph 21.9 mph N/A   Overcast
9:18 AM 30.2 °F 21.9 °F 19.4 °F 64% 29.92 in 9.0 mi SSW 9.2 mph 24.2 mph N/A   Overcast
9:53 AM 30.0 °F 19.5 °F 21.0 °F 69% 29.94 in 6.0 mi South 13.8 mph 19.6 mph 0.00 in Snow Light Snow
10:17 AM 30.2 °F 21.9 °F 23.0 °F 75% 29.94 in 4.0 mi South 9.2 mph 16.1 mph 0.00 in   Haze
10:27 AM 30.2 °F 20.8 °F 24.8 °F 80% 29.95 in 2.5 mi South 11.5 mph - 0.00 in Snow Light Snow
10:38 AM 32.0 °F 24.8 °F 23.0 °F 69% 29.94 in 4.0 mi South 8.1 mph - 0.00 in Snow Light Snow
10:41 AM 32.0 °F 24.2 °F 23.0 °F 69% 29.94 in 5.0 mi South 9.2 mph - 0.00 in   Haze
10:53 AM 32.0 °F 24.2 °F 24.1 °F 73% 29.94 in 6.0 mi South 9.2 mph - 0.00 in   Haze
11:27 AM 33.8 °F 25.3 °F 21.2 °F 60% 29.95 in 6.0 mi South 11.5 mph 19.6 mph 0.00 in Snow Light Snow
11:41 AM 33.8 °F 24.8 °F 23.0 °F 65% 29.95 in 10.0 mi South 12.7 mph 18.4 mph 0.00 in   Overcast
11:53 AM 34.0 °F 25.5 °F 21.0 °F 59% 29.95 in 10.0 mi SSW 11.5 mph 20.7 mph 0.00 in   Overcast
12:53 PM 37.0 °F 28.9 °F 19.9 °F 50% 29.94 in 10.0 mi South 12.7 mph 20.7 mph N/A   Scattered Clouds
1:53 PM 37.0 °F 28.9 °F 19.9 °F 50% 29.94 in 10.0 mi SSW 12.7 mph 26.5 mph N/A   Overcast
2:53 PM 36.0 °F 27.1 °F 24.1 °F 62% 29.96 in 3.0 mi South 13.8 mph 19.6 mph 0.00 in Snow Light Snow
3:09 PM 35.6 °F 27.5 °F 24.8 °F 65% 29.97 in 2.0 mi South 11.5 mph - 0.00 in Snow Light Snow
3:46 PM 35.6 °F 30.7 °F 24.8 °F 65% 29.97 in 3.0 mi Variable 5.8 mph 20.7 mph 0.00 in Snow Light Snow
3:53 PM 35.1 °F 27.4 °F 25.0 °F 67% 29.97 in 2.5 mi South 10.4 mph 16.1 mph 0.00 in Snow Light Snow
4:08 PM 35.6 °F 28.6 °F 26.6 °F 70% 29.97 in 2.5 mi South 9.2 mph - 0.00 in Snow Light Snow
4:16 PM 35.6 °F 29.9 °F 24.8 °F 65% 29.97 in 2.5 mi SE 6.9 mph - 0.00 in Snow Light Snow
4:29 PM 35.6 °F 31.7 °F 26.6 °F 70% 29.98 in 1.5 mi SE 4.6 mph - 0.00 in Snow Light Snow
4:37 PM 35.6 °F 29.9 °F 26.6 °F 70% 29.98 in 1.5 mi South 6.9 mph - 0.01 in Snow Light Snow
4:44 PM 35.6 °F 31.7 °F 26.6 °F 70% 29.97 in 2.0 mi Variable 4.6 mph - 0.01 in Snow Light Snow
4:51 PM 35.6 °F 28.6 °F 26.6 °F 70% 29.97 in 4.0 mi SSE 9.2 mph 16.1 mph 0.01 in Snow Light Snow
4:53 PM 36.0 °F 28.5 °F 26.1 °F 67% 29.96 in 6.0 mi South 10.4 mph 16.1 mph 0.01 in Snow Light Snow
5:22 PM 37.4 °F 29.8 °F 23.0 °F 56% 29.97 in 10.0 mi South 11.5 mph 23.0 mph N/A   Overcast
5:53 PM 36.0 °F 27.5 °F 21.9 °F 57% 29.96 in 10.0 mi South 12.7 mph 23.0 mph N/A   Mostly Cloudy
6:53 PM 36.0 °F 27.1 °F 21.9 °F 57% 29.95 in 10.0 mi SSW 13.8 mph 19.6 mph N/A   Partly Cloudy
7:53 PM 35.1 °F 25.9 °F 21.9 °F 59% 29.97 in 10.0 mi SSW 13.8 mph 23.0 mph N/A   Overcast
8:53 PM 34.0 °F 27.2 °F 21.9 °F 61% 29.98 in 10.0 mi SSW 8.1 mph 17.3 mph N/A   Mostly Cloudy
9:53 PM 35.1 °F 27.4 °F 21.0 °F 57% 29.99 in 10.0 mi SSW 10.4 mph 17.3 mph N/A   Overcast
10:53 PM 34.0 °F 26.6 °F 19.0 °F 54% 29.96 in 10.0 mi SSW 9.2 mph 16.1 mph N/A   Partly Cloudy
11:53 PM 34.0 °F 27.2 °F 16.0 °F 48% 29.95 in 10.0 mi SW 8.1 mph - N/A   Partly Cloudy